Regional Weather Roundup
Issued by NWS

Home | Current Version | Previous Version | Text Only | Print | Product List | Glossary On
Versions: 1 2 3 4 5 6 7 8 9 10 11 12 13 14 15 16 17 18 19 20 21 22 23 24 25 26 27 28 29 30 31 32 33 34 35 36 37 38 39 40 41 42 43 44 45 46 47 48 49 50
000
ASUS42 KTBW 271617
RWRFL
FLORIDA REGIONAL WEATHER ROUNDUP
NATIONAL WEATHER SERVICE TAMPA BAY RUSKIN FL
1200 PM EDT WED MAY 27 2015

NOTE: "FAIR" INDICATES FEW OR NO CLOUDS BELOW 12,000 FEET WITH NO
SIGNIFICANT WEATHER AND/OR OBSTRUCTIONS TO VISIBILITY.


FLZ001>010-012>015-112-114-115-271700-
PANHANDLE FLORIDA

CITY           SKY/WX    TMP DP  RH WIND       PRES   REMARKS
PENSACOLA      PTSUNNY   80  74  81 SE9       30.18S
PENSACOLA NAS  PTSUNNY   84  75  74 SE10      30.17S
MILTON NAS     PTSUNNY   84  71  65 S10       30.18
CRESTVIEW      MOSUNNY   86  73  65 MISG      30.20R
DUKE FIELD     PTSUNNY   83  71  67 S12       30.18R
VALPARAISO     PTSUNNY   83  73  72 SE10      30.20R
MARY ESTHER    LGT RAIN  82  73  74 SE8       30.18
TRI COUNTY     PTSUNNY   82  74  76 VRB3      30.21R
PANAMA CITY    PTSUNNY   84  72  67 SE7       30.19R
TYNDALL AFB    MOSUNNY   84  73  70 S8        30.19R
APALACHICOLA   PTSUNNY   86  72  62 SE10      30.18S

STATION/POSITION SKY/WX   TEMP    WIND        PRES    WAVE   SWELL
                          AIR SEA DIR/SP/G            HT/PER HT/PER
                          (F)     (DEG/KT/KT) (MB)    (FT/S) (FT/S)
30.1N   87.6W              80 80  130/ 10/ 10 1021.2R   4/ 6   3/ 6
29.2N   88.2W              80 80  140/  8/ 10 1021.5R   3/ 6   3/ 6
28.8N   86.0W              80 81  150/  8/ 10 1021.4R   4/ 6   3/ 6
PANAMA CITY BEAC           79 81  130/ 12/ 13 1021.6R
CAPE SAN BLAS    NOT AVBL
TOWER C                    79     130/ 11/ 13 1021.7S
28.5N   84.5W              80 81  120/ 14/ 16 1021.4F   3/ 5   2/ 6

$$
FLZ011-016>038-118-127-128-134-139-239-271700-
NORTH FLORIDA

CITY           SKY/WX    TMP DP  RH WIND       PRES   REMARKS
MARIANNA       PTSUNNY   80  74  81 S3        30.20R
TALLAHASSEE    PTSUNNY   85  71  63 E9        30.19S
PERRY          MOSUNNY   85  69  57 E3        30.21S
CROSS CITY       N/A     84  67  56 SE8       30.20F
LAKE CITY      FAIR      81  70  69 SE5       30.22F
GAINESVILLE    MOSUNNY   84  66  54 CALM      30.22S
MAYPORT NAS    PTSUNNY   83  67  58 E10       30.24S
JACKSONVILLE   PTSUNNY   84  64  50 E10       30.22F
JAX NAS        PTSUNNY   87  62  43 SE8       30.23S
JAX CRAIG      MOSUNNY   82  65  56 E8        30.23S
JAX CECIL      MOSUNNY   82  66  57 VRB6      30.22F
FERNANDINA BEA FAIR      88  66  48 SE9       30.23F
ST AUGUSTINE   SUNNY     82  68  62 E10       30.24S

STATION/POSITION SKY/WX   TEMP    WIND        PRES    WAVE   SWELL
                          AIR SEA DIR/SP/G            HT/PER HT/PER
                          (F)     (DEG/KT/KT) (MB)    (FT/S) (FT/S)
SHELL POINT                81     120/  9/ 13   N/A
KEATON BEACH               80     180/ 11/ 12 1022.6F
CEDAR KEY                  79     130/  7/  8 1023.1F
FERNANDINA                 81 81  120/  5/ 10 1023.5F
30.7N   81.3W                 79                N/A     3/ 6
MAYPORT                    79 80  100/  8/ 12 1024.2R
31.4N   80.9W              78 78  140/  6/  6 1025.0R   3/ 6   3/ 6
ST AUGUSTINE               77 80   90/  8/  8 1024.6F

$$
FLZ040-043>046-052-053-057-058-063-144-271700-
INTERIOR CENTRAL FLORIDA

CITY           SKY/WX    TMP DP  RH WIND       PRES   REMARKS
THE VILLAGES     N/A     86  68  54 E8        30.11S HAZE
LEESBURG       PTSUNNY   84  64  50 SE6       30.21F
SANFORD        MOSUNNY   86  63  45 SE8       30.20F
ORLANDO EXEC   PTSUNNY   86  67  52 E12       30.19F
ORLANDO INTL   PTSUNNY   87  67  51 E8        30.19F
KISSIMMEE      PTSUNNY   84  70  61 E9        30.20F
WINTER HAVEN   MOSUNNY   85  66  53 E10       30.20F
LAKELAND       MOSUNNY   84  66  54 E10       30.20F
BARTOW         PTSUNNY   82  64  54 NE8       30.20F
OKEECHOBEE     MOSUNNY   86  63  45 NE5       30.18R

$$
FLZ041-047-054-059-064-141-147-271700-
EAST CENTRAL FLORIDA

CITY           SKY/WX    TMP DP  RH WIND       PRES   REMARKS
ORMOND BEACH   MOSUNNY   82  66  57 E9        30.22S
DAYTONA BEACH  PTSUNNY   83  66  56 E8        30.22S
DELAND           N/A     82  66  57 E7        30.22F
NEW SMYRNA BEA MOSUNNY   84  66  54 E10G16    30.23S
JFK SPACE CTR  MOSUNNY   84  64  50 SE10      30.20S
TITUSVILLE     MOSUNNY   82  64  54 E12       30.21S
CAPE CANAVERAL SUNNY     83  67  56 E10       30.20S
PATRICK AFB    SUNNY     84  67  56 E10       30.20R
MELBOURNE      MOSUNNY   84  63  49 E10G20    30.20R
VERO BEACH     MOSUNNY   86  63  45 E12G18    30.20R
FT PIERCE      MOSUNNY   83  67  58 E10       30.19R

STATION/POSITION SKY/WX   TEMP    WIND        PRES    WAVE   SWELL
                          AIR SEA DIR/SP/G            HT/PER HT/PER
                          (F)     (DEG/KT/KT) (MB)    (FT/S) (FT/S)
28.5N   80.2W              79 81  100/  8/ 12 1023.3R
28.9N   78.5W              78 81   90/ 16/ 17 1023.1R
TRIDENT PIER               85 82   90/  6/ 11 1023.4R
28.4N   80.5W                 82                N/A     3/ 5
27.5N   80.2W                 81                N/A     4/ 5

$$
FLZ050-056-061-142-242-148-248-149-249-151-251-155-255-
160-260-271700-
WEST CENTRAL FLORIDA

CITY           SKY/WX    TMP DP  RH WIND       PRES   REMARKS
CRYSTAL RIVER  FAIR      82  70  65 E6        30.20F
INVERNESS      FAIR      82  68  61 E6        30.21S
BROOKSVILLE    PTSUNNY   83  66  56 MISG      30.20F
CLEARWATER     MOSUNNY   83  69  62 E9        30.18S
TAMPA INTL     PTSUNNY   83  65  54 VRB7      30.18F
TAMPA EXEC     MOSUNNY   86  64  48 E7G16     30.19S
PLANT CITY     MOSUNNY   86  68  54 SE10      30.21S
MACDILL AFB    MOSUNNY   84  70  61 E7        30.18S
PETER O KNIGHT MOSUNNY   88  68  51 E8        30.18F
ST PETERSBURG  SUNNY     83  68  60 E10       30.17S
SARASOTA       MOSUNNY   84  66  54 E12       30.16F
VENICE         FAIR      84  66  54 E9        30.17F

STATION/POSITION SKY/WX   TEMP    WIND        PRES    WAVE   SWELL
                          AIR SEA DIR/SP/G            HT/PER HT/PER
                          (F)     (DEG/KT/KT) (MB)    (FT/S) (FT/S)
CEDAR KEY                  79     130/  7/  8 1023.1F
28.5N   84.5W              80 81  120/ 14/ 16 1021.4F   3/ 5   2/ 6
27.3N   84.2W                 81                N/A     4/ 5
CLEARWATER BEACH           80 83  110/  9/ 12 1022.2S
MIDDLE TAMPA BAY           79     100/  9/ 12 1022.4S
VENICE                     82 85  100/  7/  9 1021.0F

$$
FLZ066-069-070-075>078-162-262-165-265-271700-
SOUTHWEST FLORIDA AND KEYS

CITY           SKY/WX    TMP DP  RH WIND       PRES   REMARKS
PUNTA GORDA    PTSUNNY   86  64  47 NE10      30.18F
FT MYERS       MOSUNNY   86  65  49 E10       30.15S
SOUTHWEST INTL PTSUNNY   87  63  44 E10       30.16R
NAPLES         SUNNY     86  66  51 E6        30.14S
MARCO ISLAND     N/A     88  66  48 NE8       30.14S
IMMOKALEE      MOSUNNY  N/A N/A N/A E9G16     30.16S
MARATHON         N/A    N/A N/A N/A E13G21    30.10S
KEY WEST NAS   PTSUNNY   85  72  65 E15       30.10S
KEY WEST INTL  MOSUNNY   86  71  60 E15       30.11S

STATION/POSITION SKY/WX   TEMP    WIND        PRES    WAVE   SWELL
                          AIR SEA DIR/SP/G            HT/PER HT/PER
                          (F)     (DEG/KT/KT) (MB)    (FT/S) (FT/S)
VENICE                     82 85  100/  7/  9 1021.0F
NAPLES                     82 84   60/  5/ 10 1020.7R
26.0N   85.6W              81 82  100/ 14/ 17 1019.6F   3/ 6   2/ 7
DRY TORTUGAS               81     110/ 14/ 16 1019.7R
NW FL BAY                  82     110/ 14/ 17 1019.8
SAND KEY                   81      90/ 14/ 15 1019.5R
SOMBRERO KEY               81     100/ 17/ 19 1019.9R
LONG KEY                   81 83  100/ 15/ 17 1020.4R
MOLASSES REEF              80 83   90/ 17/ 19 1019.6S

$$
FLZ067-068-071>074-168-172>174-271700-
SOUTHEAST FLORIDA

CITY           SKY/WX    TMP DP  RH WIND       PRES   REMARKS
W PALM BEACH   PTSUNNY   86  66  51 E14       30.17R
FT LAUDER-EXEC MOSUNNY   85  68  56 E15G23    30.14S
FT LAUDERDALE  PTSUNNY   85  69  58 E15       30.14R
POMPANO BEACH  MOSUNNY   85  67  54 E14       30.15R
PEMBROKE PINES PTSUNNY   85  67  54 E15       30.15S
OPA LOCKA      PTSUNNY   85  68  56 E16       30.14S
MIAMI          PTSUNNY   85  67  54 E14       30.14R
WEST KENDALL   MOSUNNY   87  68  52 E13G23    30.13R
HOMESTEAD      SUNNY     85  70  61 E16       30.13R

STATION/POSITION SKY/WX   TEMP    WIND        PRES    WAVE   SWELL
                          AIR SEA DIR/SP/G            HT/PER HT/PER
                          (F)     (DEG/KT/KT) (MB)    (FT/S) (FT/S)
PORT EVERGLADES            82      90/  9/ 14 1020.9R
VIRGINIA KEY               81 83   80/ 12/ 14 1019.9R
LAKE WORTH                 79 82  100/ 12/ 15 1020.8R
SETTLEMENT POINT           80      80/ 12/ 13 1021.8R

$$




USA.gov is the U.S. government's official web portal to all federal, state and local government web resources and services.